Вернуться в каталог

CALSPHERE 4

A

АктивенВоенныеPO
NORAD 1520·PAYLOAD·🇺🇸 United States

Запущен Aug 13, 1965 с Vandenberg Space Force Base

Loading…

Ближайшие Пролёты (ближайшие 24 часа)

TLE

СвежийSource: Space-Track

Эпоха: Sep 14, 2026, 14:56 UTC

1 01520U 65065H   26257.62277631  .00000071  00000-0  11837-3 0  9997
2 01520  89.8903 121.5865 0068563 210.1031 180.2221 13.36291031974657

Отслеживайте CALSPHERE 4 в реальном времени с AllMySat

Download on the App Store